Regional Weather Roundup
Issued by NWS Charleston, SC

Home | Current Version | Previous Version | Text Only | Print | Product List | Glossary On
Versions: 1 2 3 4 5 6 7 8 9 10 11 12 13 14 15 16 17 18 19 20 21 22 23 24 25 26 27 28 29 30 31 32 33 34 35 36 37 38 39 40 41 42 43 44 45 46 47 48 49 50
000
ASUS42 KCHS 301825
RWRCHS

REGIONAL WEATHER ROUNDUP
NATIONAL WEATHER SERVICE CHARLESTON SC
200 PM EDT SAT AUG 30 2014

NOTE: "FAIR" INDICATES FEW OR NO CLOUDS BELOW 12,000 FEET WITH NO
SIGNIFICANT WEATHER AND/OR OBSTRUCTIONS TO VISIBILITY.

NOT ALL STATIONS ARE QUALITY CONTROLLED BY THE NATIONAL
WEATHER SERVICE. USE DATA WITH CAUTION...ESPECIALLY
DEWPOINT OBSERVATIONS.

SCZ027-030-031-034>040-042>050-301900-
...SOUTH CAROLINA...

CITY           SKY/WX    TMP DP  RH WIND       PRES   REMARKS
N CHARLESTON   MOSUNNY   90  73  57 SE14      30.16F HX  98
6HR MIN TEMP:  79; 6HR MAX TEMP:  90;

WATERFRONT PRK   N/A     84 N/A N/A E12         N/A
FORT JOHNSON   NOT AVBL
MOUNT PLEASANT FAIR      88  73  62 SE8       30.16F HX  96
JOHNS ISLAND   CLOUDY    84  77  79 E9        30.17F HX  94
PINOPOLIS        N/A     88  73  62 VRB3      30.08F HX  96
MONCKS CORNER  NOT AVBL
SUMMERVILLE    FAIR      90  72  55 E6        30.16F HX  96
BEAUFORT MCAS  MOSUNNY   89  75  63 S12       30.15F HX  99
6HR MIN TEMP:  79; 6HR MAX TEMP:  91;

BEAUFORT ARPT  FAIR      88  75  66 SE5       30.15F HX  97
HILTON HEAD IS MOSUNNY   88  79  74 E10       30.19  HX 102
GEORGETOWN     NOT AVBL
WALTERBORO     PTCLDY    95  59  30 E8        30.14F HX  94
ORANGEBURG     PTSUNNY   89  64  43 SE6       30.15F HX  90
6HR MIN TEMP:  73; 6HR MAX TEMP:  92;

BARNWELL       MOCLDY    91  70  49 E5        30.14F HX  97
AIKEN          MOCLDY    90  70  51 SE7       30.18F HX  95
MANNING        MOCLDY    91  68  46 E3        30.16F HX  95
KINGSTREE      NOT AVBL
COLUMBIA       MOSUNNY   92  62  36 E8G17     30.14F HX  92
6HR MIN TEMP:  74; 6HR MAX TEMP:  93;

SUMTER         MOSUNNY   93  65  39 SE10G18   30.15F HX  95
6HR MIN TEMP:  74; 6HR MAX TEMP:  93; 6HR PCP: TRACE;

FLORENCE       MOSUNNY   91  64  40 S8        30.17F HX  92
6HR MIN TEMP:  75; 6HR MAX TEMP:  92;

MYRTLE BEACH   MOSUNNY   88  75  66 SE13      30.19S HX  97
N MYRTLE BEACH SUNNY     85  74  69 S8        30.18F HX  92
6HR MIN TEMP:  75; 6HR MAX TEMP:  87;


$$

GAZ063-065-086>088-099>101-113>116-118-119-134-136>141-150-301900-
...GEORGIA...

CITY           SKY/WX    TMP DP  RH WIND       PRES   REMARKS
SAVANNAH ARPT  NOT AVBL
HUNTER AAF     MOSUNNY   90  74  59 E10       30.12F HX 100
6HR MIN TEMP:  79; 6HR MAX TEMP:  91;

FORT STEWART   PTSUNNY   91  72  52 E13       30.12F HX  98
6HR MIN TEMP:  74; 6HR MAX TEMP:  93;

STATESBORO     NOT AVBL
SYLVANIA       PTCLDY    89  72  56 S6        30.14F HX  95
CLAXTON        NOT AVBL
THOMSON        PTSUNNY   92  77  60 SE9       30.18F HX 106
AUGUSTA-BUSH   MOSUNNY   94  66  39 SE9       30.12F HX  97
6HR MIN TEMP:  71; 6HR MAX TEMP:  94;

AUGUSTA-DANIEL PTSUNNY   92  66  42 S7        30.15F HX  94
SWAINSBORO     MOCLDY    95  70  43 S9        30.13F HX 101
VIDALIA          N/A     91  70  49 E6        30.12F HX  97
ALMA           MOSUNNY   90  72  55 E9        30.13F HX  97
6HR MIN TEMP:  75; 6HR MAX TEMP:  92;

WAYCROSS       CLOUDY    96  75  50 SE8       30.11F HX 107
JESUP            N/A     93  73  52 SE5       30.12F HX 102
BRUNSWICK      PTSUNNY   88  73  62 E10       30.13F HX  96
SAINT SIMONS   SUNNY     87  75  67 E12       30.14F HX  96
6HR MIN TEMP:  78; 6HR MAX TEMP:  87;


$$

SCZ027-028-034-036>038-045-046-048>050-GAZ119-141-301900-
...LAKE AND SUPPLEMENTAL COASTAL OBSERVATIONS...

STATION/POSITION TIME  TEMP    WIND        PRES    WAVE   SWELL
                       AIR SEA DIR/SP/G            HT/PER HT/PER/DIR
                 (UTC) (F)     (DEG/KT/KT) (MB)    (FT/S) (FT/S/D)
UPR LAKE MARION  NOT AVBL
WINYAH BAY       1800   83     100/  6     1022.0S
LAKE MURRAY      1800   91      CALM  /  2 1020.3S
ACE BASIN NERRS  1800   87     120/  4     1021.0F
FORT PULASKI     1800   84      80/ 13/ 14 1021.2F
SAPELO ISLAND    1800   89      90/  9     1021.0F

$$

ANZ835-935-AMZ111-154-330-350-352-354-374-450-454-472-301900-
...C-MAN AND BUOY OBSERVATIONS...

STATION/POSITION TIME  TEMP    WIND        PRES    WAVE   SWELL
                       AIR SEA DIR/SP/G            HT/PER HT/PER/DIR
                 (UTC) (F)     (DEG/KT/KT) (MB)    (FT/S) (FT/S/D)
FOLLY BEACH CMAN 1800   83      90/  9/ 10 1021.9F
BUOY 41004       1800   83 83   60/  6/ 10 1021.1F   3/ 8   2/ 8
BUOY 41008       1800   81 85  150/ 10/ 12 1020.7F   2/ 8   2/110/ 8
5E ST. MARYS GA  1800      86                N/A     2/ 8
FRYING PAN BUOY  NOT AVBL
BUOY 41025       1800   80     170/  8/ 12 1022.6F   3/ 8   3/ 70/ 8
CAPE LOOKOUT NC  1800   79     160/  6/  6 1022.6F
BUOY 41002       1733   82 83  140/  8/ 10 1022.9F   4/ 7   3/130/ 7
BUOY 41010       1700   83 87   20/  4/  4 1020.7F
BUOY 41012       NOT AVBL
ST AUGUSTINE FL  1800   82      90/  8/  9 1020.7F
CAPERS NEARSHORE 1700   83      90/ 10/ 12   N/A
FRIPP NEARSHORE  NOT AVBL


$$


USA.gov is the U.S. government's official web portal to all federal, state and local government web resources and services.